| time (UTC) | temp F | wind direction | speed MPH | gust MPH | rain 1hr in | rain 24hr in | rain mn in | humidity % | barometer mb |
| 20260503235827 | 72 | 236 | 1.0 | 4.0 | 0.00 | 0.00 | 0.00 | 50 | 1010.1 |
| 20260503235336 | 73 | 266 | 0.0 | 3.0 | 0.00 | 0.00 | 0.00 | 41 | 1010.0 |
| 20260503234821 | 73 | 226 | 0.0 | 2.0 | 0.00 | 0.00 | 0.00 | 46 | 1010.1 |
| 20260503234618 | 72 | 222 | 0.0 | 2.0 | 0.00 | 0.00 | 0.00 | 44 | 1009.2 |
| 20260503234323 | 73 | 219 | 1.0 | 5.0 | 0.00 | 0.00 | 0.00 | 45 | 1010.2 |
| 20260503233838 | 72 | 208 | 1.0 | 5.0 | 0.00 | 0.00 | 0.00 | 45 | 1010.2 |
| 20260503233322 | 73 | 260 | 1.0 | 4.0 | 0.00 | 0.00 | 0.00 | 43 | 1010.2 |
| 20260503233105 | 72 | 225 | 0.0 | 5.0 | 0.00 | 0.00 | 0.00 | 40 | 1009.3 |
| 20260503232823 | 72 | 235 | 2.0 | 5.0 | 0.00 | 0.00 | 0.00 | 42 | 1010.2 |
| 20260503232344 | 71 | 231 | 4.0 | 5.0 | 0.00 | 0.00 | 0.00 | 42 | 1010.3 |
| 20260503231841 | 72 | 219 | 3.0 | 5.0 | 0.00 | 0.00 | 0.00 | 44 | 1010.4 |
| 20260503231606 | 72 | 246 | 1.0 | 2.0 | 0.00 | 0.00 | 0.00 | 40 | 1009.6 |
| 20260503231356 | 73 | 250 | 1.0 | 1.0 | 0.00 | 0.00 | 0.00 | 40 | 1010.4 |
| 20260503230846 | 72 | 226 | 0.0 | 5.0 | 0.00 | 0.00 | 0.00 | 43 | 1010.5 |
| 20260503230323 | 75 | 281 | 3.0 | 5.0 | 0.00 | 0.00 | 0.00 | 38 | 1010.6 |
| 20260503230110 | 75 | 287 | 0.0 | 2.0 | 0.00 | 0.00 | 0.00 | 34 | 1009.8 |
| 20260503225827 | 76 | 253 | 0.0 | 2.0 | 0.00 | 0.00 | 0.00 | 33 | 1010.7 |
| 20260503225337 | 75 | 253 | 1.0 | 3.0 | 0.00 | 0.00 | 0.00 | 34 | 1010.7 |
| 20260503224827 | 73 | 229 | 2.0 | 4.0 | 0.00 | 0.00 | 0.00 | 37 | 1010.8 |
| 20260503224601 | 72 | 236 | 1.0 | 7.0 | 0.00 | 0.00 | 0.00 | 38 | 1010.1 |
| 20260503224335 | 71 | 221 | 1.0 | 7.0 | 0.00 | 0.00 | 0.00 | 40 | 1010.9 |
| 20260503223831 | 69 | 183 | 5.0 | 7.0 | 0.00 | 0.00 | 0.00 | 43 | 1011.0 |
| 20260503223325 | 69 | 236 | 1.0 | 6.0 | 0.00 | 0.00 | 0.00 | 55 | 1011.0 |
| 20260503223109 | 68 | 228 | 0.0 | 6.0 | 0.00 | 0.00 | 0.00 | 53 | 1010.2 |
| 20260503222825 | 69 | 210 | 2.0 | 7.0 | 0.00 | 0.00 | 0.00 | 50 | 1011.0 |
| 20260503222352 | 69 | 211 | 4.0 | 7.0 | 0.00 | 0.00 | 0.00 | 51 | 1011.1 |
| 20260503221821 | 69 | 229 | 3.0 | 4.0 | 0.00 | 0.00 | 0.00 | 42 | 1011.2 |
| 20260503221619 | 68 | 231 | 1.0 | 3.0 | 0.00 | 0.00 | 0.00 | 43 | 1010.4 |
| 20260503221319 | 68 | 227 | 0.0 | 1.0 | 0.00 | 0.00 | 0.00 | 52 | 1011.4 |
| 20260503220825 | 69 | 231 | 0.0 | 1.0 | 0.00 | 0.00 | 0.00 | 54 | 1011.4 |
| 20260503220335 | 69 | 219 | 0.0 | 3.0 | 0.00 | 0.00 | 0.00 | 45 | 1011.4 |
| 20260503220114 | 68 | 238 | 0.0 | 6.0 | 0.00 | 0.00 | 0.00 | 45 | 1010.7 |
| 20260503215829 | 68 | 242 | 2.0 | 6.0 | 0.00 | 0.00 | 0.00 | 44 | 1011.5 |
| 20260503214835 | 67 | 232 | 3.0 | 6.0 | 0.00 | 0.00 | 0.00 | 54 | 1011.7 |
| 20260503214602 | 67 | 218 | 2.0 | 6.0 | 0.00 | 0.00 | 0.00 | 56 | 1010.9 |
| 20260503214352 | 69 | 253 | 3.0 | 6.0 | 0.00 | 0.00 | 0.00 | 50 | 1011.8 |
| 20260503213822 | 70 | 241 | 2.0 | 3.0 | 0.00 | 0.00 | 0.00 | 39 | 1011.8 |
| 20260503213327 | 68 | 243 | 1.0 | 2.0 | 0.00 | 0.00 | 0.00 | 41 | 1012.0 |
| 20260503213100 | 67 | 188 | 0.0 | 2.0 | 0.00 | 0.00 | 0.00 | 43 | 1011.3 |
| 20260503212853 | 66 | 242 | 1.0 | 4.0 | 0.00 | 0.00 | 0.00 | 46 | 1012.1 |
| 20260503212339 | 66 | 246 | 1.0 | 5.0 | 0.00 | 0.00 | 0.00 | 53 | 1012.2 |
| 20260503211838 | 67 | 246 | 4.0 | 8.0 | 0.00 | 0.00 | 0.00 | 53 | 1012.3 |
| 20260503211506 | 66 | 210 | 1.0 | 8.0 | 0.00 | 0.00 | 0.00 | 45 | 1011.5 |
| 20260503211328 | 66 | 215 | 4.0 | 8.0 | 0.00 | 0.00 | 0.00 | 46 | 1012.4 |
| 20260503210908 | 67 | 228 | 5.0 | 8.0 | 0.00 | 0.00 | 0.00 | 53 | 1012.4 |
| 20260503210341 | 68 | 229 | 5.0 | 6.0 | 0.00 | 0.00 | 0.00 | 42 | 1012.5 |
| 20260503210132 | 68 | 243 | 2.0 | 8.0 | 0.00 | 0.00 | 0.00 | 42 | 1011.7 |
| 20260503205833 | 67 | 203 | 2.0 | 8.0 | 0.00 | 0.00 | 0.00 | 46 | 1012.6 |
| 20260503205326 | 69 | 274 | 3.0 | 8.0 | 0.00 | 0.00 | 0.00 | 40 | 1012.7 |
| 20260503204819 | 68 | 232 | 1.0 | 6.0 | 0.00 | 0.00 | 0.00 | 46 | 1012.7 |
| 20260503204621 | 67 | 226 | 1.0 | 7.0 | 0.00 | 0.00 | 0.00 | 48 | 1012.0 |
| 20260503204318 | 66 | 220 | 3.0 | 8.0 | 0.00 | 0.00 | 0.00 | 48 | 1012.9 |
| 20260503203821 | 65 | 215 | 6.0 | 8.0 | 0.00 | 0.00 | 0.00 | 48 | 1012.9 |
| 20260503203338 | 64 | 193 | 4.0 | 7.0 | 0.00 | 0.00 | 0.00 | 63 | 1013.0 |
| 20260503203005 | 64 | 246 | 0.0 | 3.0 | 0.00 | 0.00 | 0.00 | 60 | 1012.3 |
| 20260503202823 | 65 | 246 | 1.0 | 4.0 | 0.00 | 0.00 | 0.00 | 56 | 1013.1 |
| 20260503202344 | 64 | 239 | 2.0 | 4.0 | 0.00 | 0.00 | 0.00 | 59 | 1013.1 |
| 20260503201832 | 64 | 238 | 2.0 | 4.0 | 0.00 | 0.00 | 0.00 | 61 | 1013.2 |
| 20260503201335 | 65 | 231 | 2.0 | 9.0 | 0.00 | 0.00 | 0.00 | 54 | 1013.3 |
| 20260503200840 | 65 | 218 | 5.0 | 9.0 | 0.00 | 0.00 | 0.00 | 59 | 1013.4 |
| 20260503200330 | 65 | 238 | 4.0 | 6.0 | 0.00 | 0.00 | 0.00 | 45 | 1013.5 |
| 20260503200114 | 65 | 235 | 3.0 | 6.0 | 0.00 | 0.00 | 0.00 | 43 | 1012.8 |
| 20260503195828 | 65 | 243 | 4.0 | 6.0 | 0.00 | 0.00 | 0.00 | 45 | 1013.5 |
| 20260503195355 | 64 | 231 | 5.0 | 9.0 | 0.00 | 0.00 | 0.00 | 55 | 1013.6 |
| 20260503194826 | 62 | 221 | 7.0 | 9.0 | 0.00 | 0.00 | 0.00 | 51 | 1013.8 |
| 20260503194610 | 61 | 223 | 6.0 | 9.0 | 0.00 | 0.00 | 0.00 | 61 | 1013.1 |
| 20260503194342 | 62 | 242 | 4.0 | 7.0 | 0.00 | 0.00 | 0.00 | 60 | 1013.8 |
| 20260503193831 | 62 | 211 | 3.0 | 7.0 | 0.00 | 0.00 | 0.00 | 67 | 1014.0 |
| 20260503193336 | 63 | 243 | 5.0 | 8.0 | 0.00 | 0.00 | 0.00 | 50 | 1014.0 |
| 20260503193119 | 62 | 235 | 4.0 | 8.0 | 0.00 | 0.00 | 0.00 | 55 | 1013.3 |
| 20260503192829 | 63 | 228 | 7.0 | 8.0 | 0.00 | 0.00 | 0.00 | 59 | 1014.1 |
| 20260503192350 | 62 | 242 | 1.0 | 9.0 | 0.00 | 0.00 | 0.00 | 57 | 1014.2 |
| 20260503191823 | 62 | 222 | 4.0 | 9.0 | 0.00 | 0.00 | 0.00 | 68 | 1014.4 |
| 20260503191619 | 62 | 224 | 7.0 | 9.0 | 0.00 | 0.00 | 0.00 | 64 | 1013.6 |
| 20260503191322 | 63 | 221 | 0.0 | 7.0 | 0.00 | 0.00 | 0.00 | 52 | 1014.3 |
| 20260503190825 | 64 | 219 | 4.0 | 7.0 | 0.00 | 0.00 | 0.00 | 61 | 1014.5 |
| 20260503190323 | 64 | 201 | 0.0 | 4.0 | 0.00 | 0.00 | 0.00 | 45 | 1014.4 |
| 20260503190105 | 63 | 206 | 0.0 | 4.0 | 0.00 | 0.00 | 0.00 | 46 | 1014.0 |
| 20260503185850 | 63 | 243 | 1.0 | 4.0 | 0.00 | 0.00 | 0.00 | 52 | 1014.7 |
| 20260503185339 | 63 | 228 | 0.0 | 3.0 | 0.00 | 0.00 | 0.00 | 49 | 1014.8 |
| 20260503184840 | 62 | 190 | 0.0 | 3.0 | 0.00 | 0.00 | 0.00 | 66 | 1014.7 |
| 20260503184558 | 62 | 246 | 0.0 | 3.0 | 0.00 | 0.00 | 0.00 | 51 | 1014.2 |
| 20260503184321 | 62 | 249 | 0.0 | 4.0 | 0.00 | 0.00 | 0.00 | 53 | 1014.9 |
| 20260503183819 | 62 | 262 | 0.0 | 4.0 | 0.00 | 0.00 | 0.00 | 62 | 1015.0 |
| 20260503183321 | 63 | 242 | 0.0 | 2.0 | 0.00 | 0.00 | 0.00 | 52 | 1015.1 |
| 20260503183106 | 62 | 239 | 0.0 | 0.0 | 0.00 | 0.00 | 0.00 | 56 | 1014.5 |
| 20260503182842 | 62 | 224 | 0.0 | 0.0 | 0.00 | 0.00 | 0.00 | 58 | 1015.2 |
| 20260503182324 | 61 | 239 | 0.0 | 0.0 | 0.00 | 0.00 | 0.00 | 58 | 1015.3 |
| 20260503181829 | 60 | 245 | 0.0 | 0.0 | 0.00 | 0.00 | 0.00 | 64 | 1015.3 |
| 20260503181606 | 59 | 252 | 0.0 | 0.0 | 0.00 | 0.00 | 0.00 | 65 | 1014.7 |
| 20260503181318 | 60 | 281 | 0.0 | 1.0 | 0.00 | 0.00 | 0.00 | 63 | 1015.4 |
| 20260503180838 | 60 | 249 | 0.0 | 2.0 | 0.00 | 0.00 | 0.00 | 61 | 1015.4 |
| 20260503180339 | 60 | 259 | 1.0 | 3.0 | 0.00 | 0.00 | 0.00 | 58 | 1015.5 |
| 20260503175850 | 60 | 225 | 0.0 | 0.0 | 0.00 | 0.00 | 0.00 | 57 | 1015.5 |
| 20260503175325 | 60 | 222 | 0.0 | 0.0 | 0.00 | 0.00 | 0.00 | 60 | 1015.6 |
| 20260503174829 | 59 | 242 | 0.0 | 0.0 | 0.00 | 0.00 | 0.00 | 64 | 1015.7 |
| 20260503174604 | 58 | 266 | 0.0 | 0.0 | 0.00 | 0.00 | 0.00 | 67 | 1015.0 |
| 20260503174336 | 59 | 249 | 0.0 | 0.0 | 0.00 | 0.00 | 0.00 | 64 | 1015.6 |
| 20260503173823 | 59 | 239 | 0.0 | 0.0 | 0.00 | 0.00 | 0.00 | 64 | 1015.7 |
| 20260503173330 | 59 | 240 | 0.0 | 0.0 | 0.00 | 0.00 | 0.00 | 61 | 1015.8 |
| 20260503173105 | 59 | 255 | 0.0 | 0.0 | 0.00 | 0.00 | 0.00 | 62 | 1015.2 |
| 20260503172835 | 59 | 243 | 0.0 | 1.0 | 0.00 | 0.00 | 0.00 | 66 | 1015.9 |
| 20260503172329 | 59 | 226 | 0.0 | 1.0 | 0.00 | 0.00 | 0.00 | 66 | 1016.0 |
| 20260503171835 | 58 | 259 | 0.0 | 0.0 | 0.00 | 0.00 | 0.00 | 60 | 1016.1 |
| 20260503171611 | 58 | 211 | 0.0 | 0.0 | 0.00 | 0.00 | 0.00 | 65 | 1015.4 |
| 20260503171327 | 58 | 259 | 0.0 | 0.0 | 0.00 | 0.00 | 0.00 | 62 | 1016.1 |
| 20260503170832 | 58 | 256 | 0.0 | 0.0 | 0.00 | 0.00 | 0.00 | 65 | 1016.2 |
| 20260503170331 | 59 | 251 | 0.0 | 0.0 | 0.00 | 0.00 | 0.00 | 58 | 1016.2 |
| 20260503170119 | 58 | 235 | 0.0 | 0.0 | 0.00 | 0.00 | 0.00 | 61 | 1015.7 |
| 20260503160115 | 56 | 245 | 0.0 | 0.0 | 0.00 | 0.00 | 0.00 | 65 | 1016.5 |
| 20260503150844 | 56 | 25 | 0.0 | 0.0 | 0.00 | 0.00 | 0.00 | 60 | 1017.3 |
| 20260503150400 | 56 | 27 | 0.0 | 0.0 | 0.00 | 0.00 | 0.00 | 58 | 1017.3 |
| 20260503150104 | 55 | 29 | 0.0 | 0.0 | 0.00 | 0.00 | 0.00 | 58 | 1016.8 |
| 20260503131347 | 50 | 63 | 0.0 | 0.0 | 0.00 | 0.00 | 0.00 | 64 | 1016.9 |
| 20260503130840 | 51 | 66 | 0.0 | 0.0 | 0.00 | 0.00 | 0.00 | 64 | 1016.8 |
| 20260503130350 | 50 | 67 | 0.0 | 0.0 | 0.00 | 0.00 | 0.00 | 65 | 1016.7 |
| 20260503130103 | 49 | 72 | 0.0 | 0.0 | 0.00 | 0.00 | 0.00 | 64 | 1016.2 |
| 20260503110320 | 50 | 105 | 0.0 | 0.0 | 0.00 | 0.00 | 0.00 | 68 | 1016.8 |
| 20260503100106 | 51 | 97 | 0.0 | 0.0 | 0.00 | 0.00 | 0.00 | 62 | 1015.9 |
| 20260503090325 | 55 | 94 | 0.0 | 0.0 | 0.00 | 0.00 | 0.00 | 57 | 1016.2 |
| 20260503081608 | 55 | 91 | 0.0 | 0.0 | 0.00 | 0.00 | 0.00 | 57 | 1015.6 |
| 20260503081326 | 56 | 91 | 0.0 | 0.0 | 0.00 | 0.00 | 0.00 | 56 | 1016.2 |
| 20260503080827 | 56 | 215 | 0.0 | 0.0 | 0.00 | 0.00 | 0.00 | 62 | 1016.2 |
| 20260503080324 | 56 | 215 | 0.0 | 0.0 | 0.00 | 0.00 | 0.00 | 58 | 1016.1 |
| 20260503072818 | 57 | 67 | 0.0 | 0.0 | 0.00 | 0.00 | 0.00 | 55 | 1015.9 |
| 20260503072330 | 57 | 66 | 0.0 | 0.0 | 0.00 | 0.00 | 0.00 | 53 | 1015.9 |
| 20260503071822 | 57 | 67 | 0.0 | 0.0 | 0.00 | 0.00 | 0.00 | 52 | 1015.9 |
| 20260503071614 | 57 | 67 | 0.0 | 0.0 | 0.00 | 0.00 | 0.00 | 52 | 1015.2 |
| 20260503071333 | 58 | 66 | 0.0 | 0.0 | 0.00 | 0.00 | 0.00 | 51 | 1015.9 |
| 20260503070837 | 58 | 66 | 0.0 | 0.0 | 0.00 | 0.00 | 0.00 | 51 | 1015.9 |
| 20260503070339 | 59 | 66 | 0.0 | 0.0 | 0.00 | 0.00 | 0.00 | 49 | 1015.8 |
| 20260503070104 | 59 | 66 | 0.0 | 0.0 | 0.00 | 0.00 | 0.00 | 48 | 1015.1 |
| 20260503060319 | 62 | 54 | 2.0 | 6.0 | 0.00 | 0.00 | 0.00 | 46 | 1015.4 |
| 20260503060105 | 61 | 38 | 0.0 | 4.0 | 0.00 | 0.00 | 0.00 | 47 | 1014.7 |
| 20260503054839 | 58 | 89 | 0.0 | 0.0 | 0.00 | 0.00 | 0.00 | 60 | 1015.3 |
| 20260503054334 | 58 | 6 | 0.0 | 3.0 | 0.00 | 0.00 | 0.00 | 62 | 1015.3 |
| 20260503053823 | 59 | 31 | 1.0 | 3.0 | 0.00 | 0.00 | 0.00 | 64 | 1015.3 |
| 20260503053353 | 60 | 270 | 0.0 | 1.0 | 0.00 | 0.00 | 0.00 | 52 | 1015.1 |
| 20260503053103 | 60 | 128 | 0.0 | 1.0 | 0.00 | 0.00 | 0.00 | 52 | 1014.5 |
| 20260503052820 | 60 | 77 | 0.0 | 1.0 | 0.00 | 0.00 | 0.00 | 52 | 1015.1 |
| 20260503052320 | 60 | 68 | 0.0 | 1.0 | 0.00 | 0.00 | 0.00 | 54 | 1015.1 |
| 20260503051839 | 60 | 343 | 0.0 | 2.0 | 0.00 | 0.00 | 0.00 | 53 | 1015.1 |
| 20260503051603 | 60 | 317 | 0.0 | 2.0 | 0.00 | 0.00 | 0.00 | 49 | 1014.3 |
| 20260503051338 | 60 | 84 | 0.0 | 1.0 | 0.00 | 0.00 | 0.00 | 50 | 1015.0 |
| 20260503050838 | 60 | 75 | 0.0 | 0.0 | 0.00 | 0.00 | 0.00 | 51 | 1015.0 |
| 20260503050327 | 60 | 11 | 0.0 | 1.0 | 0.00 | 0.00 | 0.00 | 53 | 1015.0 |
| 20260503050056 | 60 | 15 | 0.0 | 1.0 | 0.00 | 0.00 | 0.00 | 53 | 1014.4 |
| 20260503045832 | 61 | 83 | 0.0 | 1.0 | 0.00 | 0.00 | 0.00 | 51 | 1015.1 |
| 20260503045333 | 61 | 60 | 0.0 | 1.0 | 0.00 | 0.00 | 0.00 | 54 | 1015.0 |
| 20260503044843 | 61 | 99 | 0.0 | 1.0 | 0.00 | 0.00 | 0.00 | 48 | 1014.9 |
| 20260503044603 | 61 | 99 | 0.0 | 1.0 | 0.00 | 0.00 | 0.00 | 49 | 1014.2 |
| 20260503044343 | 62 | 15 | 0.0 | 0.0 | 0.00 | 0.00 | 0.00 | 50 | 1014.8 |
| 20260503043819 | 62 | 88 | 0.0 | 1.0 | 0.00 | 0.00 | 0.00 | 47 | 1014.7 |
| 20260503043333 | 62 | 87 | 0.0 | 1.0 | 0.00 | 0.00 | 0.00 | 47 | 1014.7 |
| 20260503043106 | 62 | 90 | 0.0 | 1.0 | 0.00 | 0.00 | 0.00 | 48 | 1014.0 |
| 20260503042818 | 62 | 56 | 0.0 | 0.0 | 0.00 | 0.00 | 0.00 | 49 | 1014.7 |
| 20260503042335 | 62 | 81 | 0.0 | 0.0 | 0.00 | 0.00 | 0.00 | 49 | 1014.6 |
| 20260503041821 | 63 | 113 | 0.0 | 1.0 | 0.00 | 0.00 | 0.00 | 49 | 1014.4 |
| 20260503041603 | 62 | 97 | 0.0 | 1.0 | 0.00 | 0.00 | 0.00 | 51 | 1013.7 |
| 20260503041400 | 63 | 67 | 0.0 | 1.0 | 0.00 | 0.00 | 0.00 | 54 | 1014.4 |
| 20260503040842 | 63 | 102 | 0.0 | 3.0 | 0.00 | 0.00 | 0.00 | 54 | 1014.4 |
| 20260503040404 | 63 | 81 | 0.0 | 3.0 | 0.00 | 0.00 | 0.00 | 60 | 1014.4 |
| 20260503040114 | 63 | 58 | 1.0 | 3.0 | 0.00 | 0.00 | 0.00 | 62 | 1013.6 |
| 20260503035830 | 64 | 29 | 0.0 | 1.0 | 0.00 | 0.00 | 0.00 | 48 | 1014.2 |
| 20260503035326 | 65 | 117 | 0.0 | 1.0 | 0.00 | 0.00 | 0.00 | 46 | 1014.1 |
| 20260503034858 | 65 | 129 | 0.0 | 1.0 | 0.00 | 0.00 | 0.00 | 44 | 1014.1 |
| 20260503034607 | 65 | 155 | 0.0 | 0.0 | 0.00 | 0.00 | 0.00 | 46 | 1013.4 |
| 20260503034324 | 66 | 101 | 0.0 | 0.0 | 0.00 | 0.00 | 0.00 | 47 | 1014.2 |
| 20260503033905 | 66 | 102 | 0.0 | 0.0 | 0.00 | 0.00 | 0.00 | 51 | 1014.1 |
| 20260503033335 | 66 | 102 | 0.0 | 0.0 | 0.00 | 0.00 | 0.00 | 48 | 1014.0 |
| 20260503032834 | 67 | 100 | 0.0 | 1.0 | 0.00 | 0.00 | 0.00 | 51 | 1014.0 |
| 20260503032335 | 68 | 272 | 0.0 | 0.0 | 0.00 | 0.00 | 0.00 | 44 | 1014.0 |
| 20260503031828 | 69 | 278 | 0.0 | 0.0 | 0.00 | 0.00 | 0.00 | 43 | 1013.9 |
| 20260503031510 | 69 | 278 | 0.0 | 0.0 | 0.00 | 0.00 | 0.00 | 41 | 1013.2 |
| 20260503031334 | 70 | 280 | 0.0 | 0.0 | 0.00 | 0.00 | 0.00 | 39 | 1014.0 |
| 20260503030850 | 70 | 280 | 0.0 | 0.0 | 0.00 | 0.00 | 0.00 | 39 | 1013.9 |
| 20260503030319 | 71 | 271 | 0.0 | 0.0 | 0.00 | 0.00 | 0.00 | 36 | 1013.9 |
| 20260503030020 | 71 | 271 | 0.0 | 0.0 | 0.00 | 0.00 | 0.00 | 35 | 1013.2 |
| 20260503025840 | 72 | 271 | 0.0 | 0.0 | 0.00 | 0.00 | 0.00 | 36 | 1013.9 |
| 20260503025345 | 73 | 271 | 0.0 | 0.0 | 0.00 | 0.00 | 0.00 | 36 | 1013.9 |
| 20260503024828 | 74 | 271 | 0.0 | 0.0 | 0.00 | 0.00 | 0.00 | 34 | 1013.9 |
| 20260503024613 | 74 | 271 | 0.0 | 0.0 | 0.00 | 0.00 | 0.00 | 34 | 1013.2 |
| 20260503024325 | 75 | 271 | 0.0 | 0.0 | 0.00 | 0.00 | 0.00 | 32 | 1013.9 |
| 20260503023833 | 76 | 271 | 0.0 | 0.0 | 0.00 | 0.00 | 0.00 | 31 | 1013.8 |
| 20260503023323 | 77 | 271 | 0.0 | 0.0 | 0.00 | 0.00 | 0.00 | 30 | 1013.8 |
| 20260503023108 | 77 | 271 | 0.0 | 0.0 | 0.00 | 0.00 | 0.00 | 33 | 1013.0 |
| 20260503022845 | 78 | 271 | 0.0 | 0.0 | 0.00 | 0.00 | 0.00 | 34 | 1013.8 |
| 20260503022329 | 77 | 238 | 0.0 | 1.0 | 0.00 | 0.00 | 0.00 | 29 | 1013.8 |
| 20260503021843 | 76 | 238 | 0.0 | 1.0 | 0.00 | 0.00 | 0.00 | 32 | 1013.8 |
| 20260503021617 | 75 | 217 | 0.0 | 2.0 | 0.00 | 0.00 | 0.00 | 33 | 1013.0 |
| 20260503021326 | 76 | 263 | 0.0 | 3.0 | 0.00 | 0.00 | 0.00 | 33 | 1013.8 |
| 20260503020823 | 77 | 314 | 1.0 | 5.0 | 0.00 | 0.00 | 0.00 | 28 | 1013.8 |
| 20260503020325 | 77 | 46 | 2.0 | 6.0 | 0.00 | 0.00 | 0.00 | 26 | 1013.8 |
| 20260503020009 | 77 | 53 | 3.0 | 6.0 | 0.00 | 0.00 | 0.00 | 28 | 1013.1 |
| 20260503015832 | 77 | 36 | 4.0 | 6.0 | 0.00 | 0.00 | 0.00 | 28 | 1013.8 |
| 20260503015321 | 78 | 26 | 4.0 | 5.0 | 0.00 | 0.00 | 0.00 | 26 | 1013.8 |
| 20260503014837 | 78 | 46 | 4.0 | 8.0 | 0.00 | 0.00 | 0.00 | 25 | 1013.8 |
| 20260503014612 | 78 | 44 | 4.0 | 8.0 | 0.00 | 0.00 | 0.00 | 26 | 1013.1 |
| 20260503014326 | 78 | 31 | 1.0 | 4.0 | 0.00 | 0.00 | 0.00 | 25 | 1013.8 |
| 20260503013819 | 78 | 61 | 1.0 | 6.0 | 0.00 | 0.00 | 0.00 | 26 | 1013.8 |
| 20260503013318 | 77 | 43 | 3.0 | 6.0 | 0.00 | 0.00 | 0.00 | 26 | 1013.8 |
| 20260503013105 | 77 | 47 | 4.0 | 6.0 | 0.00 | 0.00 | 0.00 | 26 | 1013.1 |
| 20260503012820 | 77 | 37 | 4.0 | 7.0 | 0.00 | 0.00 | 0.00 | 27 | 1013.8 |
| 20260503012353 | 77 | 39 | 2.0 | 8.0 | 0.00 | 0.00 | 0.00 | 26 | 1013.8 |
| 20260503011833 | 77 | 43 | 6.0 | 8.0 | 0.00 | 0.00 | 0.00 | 29 | 1013.9 |
| 20260503011339 | 77 | 32 | 4.0 | 9.0 | 0.00 | 0.00 | 0.00 | 27 | 1013.9 |
| 20260503010825 | 77 | 29 | 5.0 | 8.0 | 0.00 | 0.00 | 0.00 | 28 | 1013.9 |
| 20260503010320 | 78 | 37 | 6.0 | 8.0 | 0.00 | 0.00 | 0.00 | 27 | 1013.9 |
| 20260503010107 | 77 | 26 | 6.0 | 8.0 | 0.00 | 0.00 | 0.00 | 27 | 1013.2 |
| 20260503005821 | 78 | 38 | 4.0 | 14.0 | 0.00 | 0.00 | 0.00 | 26 | 1014.0 |
| 20260503005330 | 78 | 37 | 5.0 | 14.0 | 0.00 | 0.00 | 0.00 | 27 | 1014.0 |
| 20260503004827 | 78 | 28 | 4.0 | 7.0 | 0.00 | 0.00 | 0.00 | 28 | 1014.0 |
| 20260503004602 | 78 | 36 | 3.0 | 6.0 | 0.00 | 0.00 | 0.00 | 27 | 1013.3 |
| 20260503004339 | 78 | 43 | 1.0 | 4.0 | 0.00 | 0.00 | 0.00 | 25 | 1014.0 |
| 20260503003835 | 78 | 48 | 2.0 | 10.0 | 0.00 | 0.00 | 0.00 | 26 | 1014.1 |
| 20260503003323 | 77 | 31 | 4.0 | 10.0 | 0.00 | 0.00 | 0.00 | 27 | 1014.2 |
| 20260503003104 | 76 | 30 | 6.0 | 10.0 | 0.00 | 0.00 | 0.00 | 30 | 1013.5 |
| 20260503002823 | 77 | 32 | 9.0 | 11.0 | 0.00 | 0.00 | 0.00 | 30 | 1014.2 |
| 20260503002332 | 78 | 46 | 1.0 | 5.0 | 0.00 | 0.00 | 0.00 | 29 | 1014.2 |
| 20260503001821 | 78 | 27 | 1.0 | 7.0 | 0.00 | 0.00 | 0.00 | 27 | 1014.3 |
| 20260503001621 | 77 | 33 | 1.0 | 8.0 | 0.00 | 0.00 | 0.00 | 27 | 1013.6 |
| 20260503001321 | 77 | 64 | 2.0 | 10.0 | 0.00 | 0.00 | 0.00 | 27 | 1014.4 |
| 20260503000823 | 75 | 33 | 6.0 | 10.0 | 0.00 | 0.00 | 0.00 | 31 | 1014.4 |
| 20260503000336 | 74 | 9 | 1.0 | 3.0 | 0.00 | 0.00 | 0.00 | 39 | 1014.4 |
| 20260503000107 | 73 | 48 | 0.0 | 2.0 | 0.00 | 0.00 | 0.00 | 39 | 1013.8 |